ROBUSTA-3A

Satellite information

Favourite Embed

Satellite Type and Status

PAYLOADIN ORBIT

Key statistics

Satellite ROBUSTA-3A at a glance.

Uptime

479

Days in orbit

Revolutions

≈ 15.1

Per day

Orbit

LEO

Low Earth Orbit

Inclination

62.0

Latest

Satellite identification and parameters

Extended collection of information and parameters for ROBUSTA-3A.

Object identification

Identified? True

Debris? False

Object name: ROBUSTA-3A

International designator: 2024-128J

Object number (NORAD): 60243

Object ID (CCSDS): 60243

Country: FRANCE (FR)

Current information (Y/N): Y

RCS size: SMALL

Orbital parameters

Period: 95.546 minutes

Inclination: 61.9877 deg

SMA: 6923.137 km

Apoapsis: 584.354 km

Periapsis: 505.649 km

RAAN: 298.439 deg

Eccentricy: 0.00568417

Argument of periapsis: 81.3948 deg

Mean anomaly: 279.358 deg

Mean motion: 15.07122035 rev/day

Mean motion (dot): 0.00012138 rev/day2

B* drag term: 0.00078748704 1/REarth

Two-line elements (TLE)

Creation date: Oct. 31, 2025, 3 a.m.

Reference frame: TEME

Reference center: EARTH

Epoch: Oct. 30, 2025, 8:36 a.m. UTC

TLE line 0: 0 ROBUSTA-3A

TLE line 1: 1 60243U 24128J 25303.35860715 .00012138 00000-0 78749-3 0 9993

TLE line 2: 2 60243 61.9877 298.4390 0056842 81.3948 279.3580 15.07122035 71725

Live tracking on map

Real-time ground track for satellite ROBUSTA-3A.

In-orbit conjunctions

There are no conjunctions computed for ROBUSTA-3A, at the moment. Check back to stay up to date, as we update our databases every day.

Go to all conjunctions

Associated space launch

Maiden Flight of the Ariane 62 launch vehicle, carrying ten cubesats, two deployers, five experiments, and two reentry capsules.

ROBUSTA-3A was lifted into orbit during the mission ‘Ariane 62 | Maiden Flight’, on board a Ariane 62 space rocket.

The launch took place on July 9, 2024, 7 p.m. from Ariane Launch Area 4.

For more information about the launch, click the button.

Launch to space Ariane 62 | Maiden Flight
Ariane 62 | Maiden Flight

Agency: European Space Agency

Status: Launch Successful

Launch date: July 9, 2024, 7 p.m. UTC

Rocket: Ariane 62

Launch pad: Ariane Launch Area 4

Location: Guiana Space Centre, French Guiana

...

Latest news about this satellite

News about space launch
ESA 2024 Highlights: flight of the Ariane 6

In 2024, ESA continued to drive Europe’s innovation and excellence in space, equipping the continent with advanced tools and knowledge to address global and local challenges. The year saw pioneering missions, cutting-edge satellites and the pivotal restor...

News about space launch
Europe lifts off from its launcher crisis

For the European space industry, the deafening rumble of the ascending rocket was a sigh of relief. On the afternoon of July 9, an Ariane 6 lifted off on a […]

News about space launch
Ariane 6 joint update report, 16 September 2024

The Ariane 6 Launcher Task Force consists of top management of ESA, as the overall Ariane 6 procuring entity and launch system architect, of the French space agency CNES as the launch base prime contractor, of ArianeGroup as the launcher system prime cont...


Newsletter sign-up

Weekly statistics, charts and insights to help you stay on top of the space industry.